SCP
0 0 0 0 0 0 0 0 0 0 0 0 0 0 0 0 0 0 -0 0 0 -0 0 0 0 0 0 -0 0 0 0 0 0 0 0 0 0 0 0 0 0 0 0 0 0 0 0 0 0 0 0 0 0 0
0 0 0 0 0 0 0 0 0 0 0 0 -0 -0 0 0 0 0 -0 0 0 0 -0 0 0 0 0 0 0 0 0 0 0 0 0 0 0 0 0 0 0 0 0 0 0 0 0 0 0 0 0 0 0 0
0 0 0 0 0 0 0 0 0 0 0 0 -0 -0 -0 -0 -0 0 -0 -0 0 -0 0 0 0 0 0 0 0 0 0 0 0 0 0 0 0 0 0 0 0 0 0 0 0 0 0 0 0 0 0 0 0 0
0 0 0 0 0 0 0 0 0 0 0 0 -0 0 -0 -0 -0 0 -0 -0 -0 0 0 0 0 0 0 0 0 0 0 0 0 0 0 0 0 0 0 0 0 0 0 0 0 0 0 0 0 0 0 0 0 0
0 0 0 0 0 0 0 0 0 0 0 0 0 -0 -0 0 -0 -0 -0 -0 0 -0 0 0 0 0 0 0 0 0 0 0 0 0 0 0 0 0 0 0 0 0 0 0 0 0 0 0 0 0 0 0 0 0
0 0 0 0 0 0 0 0 0 0 0 0 -0 -0 -0 0 0 0 0 0 -0 0 -0 0 0 0 0 0 0 0 0 0 0 0 0 0 0 0 0 0 0 0 0 0 0 0 0 0 0 0 0 0 0 0
0 0 0 0 0 0 0 0 0 0 0 -0 -0 -0 -0 0 0 0 0 0 0 0 0 0 0 0 0 0 0 -0 -0 0 0 0 0 0 0 0 0 0 0 0 0 0 0 0 0 0 0 0 0 0 0 -0
0 0 0 0 0 0 0 0 0 0 -0 -0 -0 -0 -0 -0 0 0 0 -0 0 0 0 0 0 0 0 0 0 0 0 0 0 0 0 0 0 -0 0 0 0 0 0 0 0 0 0 0 0 0 0 0 0 -0
0 0 0 0 0 0 0 0 -0 -0 -0 -0 -0 0 0 0 0 0 -0 0 0 0 0 0 0 0 0 0 0 0 0 0 0 0 0 0 0 0 -0 0 0 0 0 0 0 0 0 0 0 0 0 -0 -0 -0
0 0 0 0 0 -0 -0 -0 -0 -0 -0 -0 0 0 0 0 0 0 0 0 0 0 0 0 0 0 0 0 0 0 0 0 -0 -0 -0 0 0 -0 0 -0 -0 -0 0 0 0 0 0 0 0 0 -0 -0 -0 -0
0 0 0 0 0 -0 -0 -0 -0 -0 -0 -0 0 0 0 0 0 0 0 0 0 0 -0 0 0 0 0 0 0 0 0 0 0 0 0 0 -0 0 -0 -0 -0 0 0 0 0 0 0 0 -0 -0 0 -0 0 0
0 0 0 0 -0 -0 -0 -0 -0 -0 -0 0 0 0 0 0 0 0 0 0 0 0 0 -0 0 0 0 0 0 -0 0 0 0 0 -0 0 0 -0 -0 -0 0 0 0 0 0 0 0 -0 -0 0 -0 -0 -0 -0
-0 0 0 -0 -0 -0 -0 -0 -0 0 0 0 0 0 0 0 0 0 0 0 0 -0 0 0 0 0 0 0 0 0 0 0 0 -0 -0 0 -0 -0 -0 -0 0 0 0 0 0 0 -0 -0 0 0 -0 0 -0 0
-0 0 -0 -0 -0 -0 -0 -0 0 0 0 0 0 0 0 0 0 0 0 0 0 0 0 -0 0 0 0 0 0 0 0 0 -0 -0 0 -0 -0 -0 -0 0 0 0 0 -0 0 -0 0 0 0 0 -0 0 0 0
-0 -0 -0 -0 -0 -0 -0 -0 -0 0 0 0 0 0 0 0 0 0 0 0 0 0 -0 0 0 0 0 0 0 0 0 0 -0 0 0 -0 -0 -0 -0 -0 -0 -0 0 0 0 -0 0 0 0 0 -0 0 0 0
-0 -0 0 -0 -0 -0 -0 -0 0 0 0 0 0 0 0 0 0 0 0 0 0 0 0 0 0 0 -0 0 0 -0 -0 0 0 0 -0 -0 -0 -0 -0 -0 -0 0 0 0 0 -0 0 0 0 -0 -0 -0 0 0
-0 0 -0 -0 -0 -0 -0 0 0 0 0 0 0 0 0 0 0 0 0 0 0 0 0 0 0 0 -0 -0 -0 0 -0 0 0 0 -0 -0 -0 -0 -0 -0 -0 0 0 0 -0 -0 0 -0 -0 -0 -0 -0 -0 -0
-0 -0 -0 -0 -0 -0 0 0 0 0 0 0 0 0 0 0 0 0 0 0 0 0 0 0 0 0 -0 0 0 -0 -0 -0 0 0 -0 -0 -0 -0 -0 -0 -0 -0 -0 0 -0 -0 -0 -0 -0 -0 -0 -0 -0 -0
-0 -0 -0 -0 -0 0 0 0 0 0 0 0 0 0 0 0 0 0 0 0 0 0 0 0 0 0 0 0 0 -0 0 0 -0 -0 -0 -0 -0 -0 -0 -0 -0 -0 -0 0 -0 -0 -0 -0 -0 -0 -0 -0 -0 -0
-0 -0 -0 -0 0 0 0 0 0 0 0 0 0 0 0 0 0 0 0 0 0 0 0 0 0 0 0 0 0 -0 -0 -0 -0 -0 -0 -0 -0 -0 -0 -0 -0 -0 -0 -0 0 -0 -0 -0 -0 -0 -0 -0 -0 -0
0 0 -0 0 0 0 0 0 0 0 0 0 0 0 0 0 0 0 0 0 0 0 0 0 0 0 0 0 0 -0 0 -0 0 0 -0 -0 -0 -0 -0 -0 -0 -0 -0 -0 0 -0 -0 -0 -0 -0 -0 -0 -0 -0
0 0 0 0 0 0 0 0 0 0 0 0 0 0 0 0 0 0 0 0 0 0 0 0 0 0 -0 -0 -0 -0 -0 -0 0 0 0 -0 -0 -0 -0 -0 -0 -0 -0 -0 -0 0 0 0 -0 -0 -0 -0 -0 0
0 0 0 0 0 0 0 0 0 0 0 0 0 0 0 0 0 0 0 0 0 0 0 0 0 0 0 -0 -0 -0 -0 -0 -0 -0 -0 -0 -0 -0 -0 -0 -0 -0 -0 -0 -0 -0 -0 -0 0 0 0 0 0 0
0 0 0 0 0 0 0 0 0 0 0 0 0 0 0 0 0 0 0 0 0 0 0 0 0 0 0 -0 -0 -0 -0 -0 -0 -0 -0 -0 -0 -0 -0 0 0 0 0 -0 -0 -0 -0 -0 -0 0 0 -0 -0 -0
0 0 0 0 0 0 0 0 0 0 0 0 0 0 0 0 0 0 0 0 0 0 0 0 0 0 0 0 0 -0 -0 -0 -0 -0 0 -0 -0 -0 0 0 0 0 0 0 0 0 -0 0 0 0 -0 -0 -0 -0
0 0 0 0 0 0 0 0 0 0 0 0 0 0 0 0 0 0 0 0 0 0 0 0 0 0 0 0 0 0 0 0 0 0 -0 0 0 -0 -0 -0 -0 0 0 0 0 0 0 0 0 0 0 0 0 0
0 0 0 0 0 0 0 0 0 0 0 0 0 0 0 0 0 0 0 0 0 0 0 0 0 0 0 0 0 0 0 0 0 0 -0 -0 -0 -0 -0 -0 -0 0 -0 0 0 0 0 0 0 0 0 0 0 0
0 0 0 0 0 0 0 0 0 0 -0 -0 -0 -0 0 0 0 0 0 0 0 0 0 0 0 0 0 0 0 0 0 0 0 0 0 0 0 -0 0 0 0 -0 -0 -0 0 0 0 0 0 0 0 0 0 0
0 0 0 0 0 0 0 0 0 0 -0 -0 -0 0 0 -0 -0 -0 0 0 0 0 0 0 0 0 0 0 0 0 0 0 0 0 0 0 0 0 0 -0 -0 -0 -0 -0 0 0 0 0 0 0 0 0 0 0
0 0 0 0 0 0 0 0 0 0 0 0 -0 -0 -0 0 0 0 0 0 0 0 0 0 0 0 0 0 0 0 0 0 0 0 0 0 0 0 0 0 -0 -0 -0 -0 -0 -0 -0 -0 0 0 0 0 0 0
0 0 0 0 0 0 0 0 0 0 0 0 0 0 0 0 0 0 0 0 0 0 0 0 0 0 0 0 0 0 0 0 0 0 0 0 0 0 0 0 0 0 0 0 0 0 0 0 0 0 0 0 0 0
-0 0 0 0 0 0 0 -0 -0 -0 -0 -0 -0 0 0 0 0 0 0 0 0 0 0 0 0 0 0 0 0 0 0 0 0 0 0 0 0 0 0 0 0 0 0 0 0 0 0 0 0 0 0 0 0 0
-0 -0 -0 -0 -0 -0 -0 -0 -0 -0 -0 0 0 0 0 0 0 0 0 0 0 0 0 0 0 0 0 0 0 0 0 0 0 0 0 0 0 0 0 0 0 0 0 0 0 0 0 0 0 0 0 0 0 0
Wind_Speed_500mb
41 42 42 37 37 36 35 35 37 36 40 39 34 30 31 29 27 28 30 27 21 9 24 24 23 14 6 7 4 2 9 6 6 8 5 4 7 7 6 6 14 13 13 9 13 11 14 11 11 11 8 5 8 9
39 40 37 38 39 39 37 38 38 39 41 40 37 32 34 30 30 29 30 24 16 17 26 27 22 30 21 8 10 5 6 2 5 2 4 2 7 6 9 7 9 9 9 5 11 3 7 3 10 9 8 8 8 10
40 37 37 42 44 42 38 33 37 36 40 40 39 34 36 32 25 26 29 24 19 14 28 29 14 7 13 28 16 9 3 3 3 3 3 2 5 5 7 9 4 9 9 9 6 11 1 6 8 6 6 10 9 12
40 36 36 41 46 47 37 36 36 36 41 40 36 35 37 30 27 23 27 19 19 3 5 8 7 3 3 10 17 10 1 5 6 4 5 5 6 3 4 4 13 6 7 11 17 13 7 9 10 8 7 7 10 14
40 37 36 39 45 47 41 40 38 35 37 40 36 34 32 27 17 13 21 22 16 9 6 9 4 5 10 11 12 9 9 9 6 6 5 3 2 4 5 7 14 17 15 10 5 7 7 6 6 7 12 16 18 22
42 40 34 37 43 43 41 39 39 37 41 37 36 33 25 22 12 13 7 9 22 21 5 3 5 7 18 11 8 10 10 4 3 4 2 1 1 6 4 5 6 8 8 4 4 3 5 7 5 11 17 18 22 21
42 41 36 35 41 44 44 42 39 41 42 34 34 29 21 19 15 10 6 9 13 18 2 5 8 8 17 14 10 12 9 5 0 4 4 2 5 10 5 4 10 5 12 14 5 3 4 4 17 14 17 21 23 28
42 43 40 35 38 43 47 43 40 41 39 38 31 23 22 17 17 15 18 6 11 10 5 4 3 9 17 10 7 7 8 6 2 0 3 5 9 10 7 11 6 9 9 10 8 8 8 6 9 14 19 26 31 32
42 42 41 33 38 43 47 43 42 40 35 35 35 19 11 16 10 9 6 8 9 5 3 6 6 5 15 5 0 2 3 3 1 4 4 6 7 8 6 1 8 12 5 8 4 5 6 9 12 18 26 28 36 41
40 41 41 32 39 44 47 44 39 38 36 32 19 5 5 8 11 10 6 4 6 5 6 6 1 6 4 10 4 5 4 5 6 8 8 7 8 9 4 12 16 20 6 4 1 6 10 12 17 23 24 34 40 37
37 39 36 34 39 41 42 38 36 33 27 10 3 3 4 17 8 4 4 4 5 7 10 5 7 6 8 4 5 9 2 3 4 6 5 5 5 6 17 19 20 16 12 15 16 13 13 14 17 19 29 39 39 37
33 38 35 36 34 38 43 33 28 22 21 24 20 4 5 3 2 4 4 5 7 2 9 7 11 8 9 6 6 7 2 4 4 9 3 4 8 20 22 22 19 17 20 19 16 15 12 16 18 19 26 38 39 32
35 37 30 34 30 38 36 26 32 22 13 3 3 4 3 3 5 7 11 6 5 11 12 13 12 11 9 9 3 4 6 5 14 4 5 1 26 28 24 22 20 21 20 17 16 14 14 17 20 24 23 34 39 34
36 31 30 34 29 35 29 21 29 3 4 2 2 4 5 6 6 3 2 4 6 7 15 24 14 6 5 8 4 6 5 2 5 6 3 8 31 31 24 20 24 21 17 16 16 15 16 19 21 24 23 28 36 43
33 29 28 19 32 33 29 18 15 9 4 3 2 3 5 4 5 10 9 5 6 7 22 12 5 4 5 5 4 3 6 6 5 2 5 25 33 30 25 22 24 20 17 14 13 15 18 19 20 22 25 25 29 37
31 30 13 24 22 20 22 19 3 6 5 3 4 6 6 3 3 6 6 6 16 16 13 6 4 4 6 3 5 5 5 4 4 2 30 32 32 28 23 22 23 19 16 14 14 16 18 19 19 21 24 26 31 33
29 14 26 24 20 17 12 11 7 2 4 4 2 6 7 13 10 7 2 3 9 22 6 4 4 4 5 5 5 3 3 4 5 13 22 27 31 29 24 24 23 19 18 18 15 17 21 22 19 21 25 27 28 31
20 24 19 18 12 16 6 7 6 4 3 4 3 7 7 10 11 6 6 10 9 9 6 2 1 6 5 4 4 6 7 12 2 19 25 27 28 27 26 28 24 22 22 20 16 18 18 20 20 21 21 21 24 28
27 23 13 6 8 9 6 6 5 5 3 7 6 8 8 9 7 6 2 5 5 11 7 4 6 4 4 4 7 9 7 12 20 24 26 26 28 27 29 29 26 22 21 20 16 15 17 19 21 19 19 20 23 22
17 10 3 5 1 4 4 3 5 4 5 9 10 8 10 10 9 6 3 8 6 2 8 4 2 7 7 9 8 9 13 22 29 28 26 26 29 30 31 28 23 21 19 20 16 14 16 16 16 18 20 22 24 25
5 1 3 7 2 3 4 4 3 4 9 8 9 12 8 9 10 7 6 10 5 4 7 12 2 8 3 3 3 3 12 26 27 21 23 30 32 31 28 21 21 20 19 17 16 14 12 13 13 14 15 18 20 25
2 2 7 2 2 3 5 5 6 9 6 10 10 6 9 6 5 4 10 9 7 9 7 2 2 4 4 2 2 4 16 26 17 17 22 29 34 34 31 26 22 20 19 17 15 15 14 13 13 13 12 15 17 19
2 2 5 3 3 3 3 4 5 3 5 4 7 6 5 5 2 5 6 7 4 2 5 8 9 7 5 4 7 13 27 25 22 20 21 23 27 30 30 27 23 22 20 17 14 16 17 17 14 12 10 11 10 11
5 2 2 2 4 4 5 4 4 6 6 4 5 5 4 3 6 7 5 5 4 4 4 6 6 8 9 12 13 22 28 25 22 19 22 24 27 29 31 29 24 19 17 19 17 17 17 17 16 12 9 7 7 7
2 3 4 6 6 6 7 5 5 7 4 5 4 5 4 6 5 6 4 7 7 11 8 4 6 5 2 5 8 18 26 31 25 32 27 25 25 28 27 26 22 19 20 23 21 18 17 16 15 13 10 7 6 6
5 7 8 6 6 7 3 5 4 2 4 4 4 5 5 5 5 3 4 5 7 7 9 9 6 1 5 4 3 10 20 31 17 28 30 30 27 30 31 29 26 23 24 24 24 22 20 17 16 16 12 9 9 9
5 8 9 8 6 7 8 10 9 5 4 3 5 6 4 5 2 6 5 4 6 1 2 5 7 5 6 5 3 1 9 24 16 23 31 25 22 21 25 26 25 21 28 31 26 23 20 20 19 18 14 11 9 8
9 5 9 4 10 12 6 4 6 7 2 2 5 4 4 6 5 1 5 8 6 4 6 4 8 9 8 9 9 7 13 22 25 24 23 13 23 23 23 19 18 22 29 30 27 24 20 18 19 19 17 13 10 8
9 9 10 11 11 10 9 6 5 2 8 7 2 2 3 3 12 7 8 8 8 8 9 9 8 8 8 7 4 7 15 27 26 32 35 29 14 20 28 26 33 33 32 32 29 24 23 21 20 21 17 13 8 6
8 15 9 8 7 9 10 8 5 5 5 6 4 3 5 9 8 8 6 9 11 11 11 14 13 10 10 9 4 3 3 15 28 34 27 27 18 29 41 39 36 34 33 31 29 28 25 20 17 15 11 8 6 6
5 12 10 12 9 10 9 8 9 8 9 9 7 9 6 7 9 13 13 11 7 8 9 9 8 7 6 4 6 9 6 12 20 26 36 31 12 31 43 41 38 35 33 30 26 25 26 25 21 17 13 9 5 7
14 16 11 10 13 10 10 10 10 13 13 13 14 8 5 5 6 6 8 3 2 3 7 7 8 8 9 10 11 14 11 12 13 17 28 49 35 28 31 31 35 35 33 29 26 26 27 23 21 18 13 8 7 7
15 11 8 6 7 8 8 7 4 7 8 10 9 8 8 6 3 8 7 7 5 7 9 10 11 9 12 13 13 13 15 24 24 26 38 38 31 26 30 35 36 32 28 29 30 28 26 23 20 17 12 10 9 9
Wind_Direction_500mb
330 332 335 337 334 326 323 317 322 320 329 332 327 318 314 315 313 298 276 273 275 248 272 274 284 272 260 190 245 132 210 187 203 222 243 176 249 185 214 151 168 171 183 192 212 218 248 121 179 242 28 343 338 325
326 331 335 330 328 326 317 312 314 311 320 325 327 311 316 319 304 292 276 279 270 252 271 283 264 281 267 278 307 182 30 75 36 255 244 253 201 196 227 199 188 214 219 198 204 233 106 191 307 325 319 325 332 323
322 323 329 328 329 325 320 315 312 316 318 322 322 307 317 315 301 281 263 277 285 267 284 248 286 256 262 234 241 290 153 92 150 334 306 7 248 291 212 229 252 221 208 236 227 186 331 319 308 320 333 327 342 324
322 319 323 328 327 332 320 312 313 311 316 323 319 311 316 317 309 273 251 268 292 269 260 259 3 252 343 164 189 204 28 167 136 218 251 255 243 241 227 4 259 55 205 245 250 259 307 68 54 15 350 337 326 312
321 317 317 325 326 331 326 320 315 310 312 319 315 316 319 315 305 260 255 260 266 233 287 342 286 6 130 138 144 158 156 167 193 198 219 227 12 263 228 284 247 220 242 246 302 63 323 344 332 330 320 317 313 310
320 317 315 323 324 327 324 318 314 310 312 317 310 315 314 309 263 271 263 256 234 234 242 222 192 160 170 150 149 135 132 123 117 264 156 180 82 258 251 222 269 225 216 289 48 290 298 4 340 331 322 313 308 302
320 319 311 315 323 322 321 316 310 308 316 311 310 303 304 293 254 261 308 289 266 199 265 276 153 118 140 136 160 183 167 144 122 122 213 195 172 214 262 235 164 112 121 128 148 276 247 354 341 328 322 318 309 302
321 321 313 311 318 321 324 317 316 311 313 320 326 302 291 255 242 260 269 347 207 203 191 250 116 157 175 165 187 213 192 162 91 74 182 214 155 217 253 228 164 129 120 112 88 42 12 354 339 341 336 330 323 316
318 319 319 312 317 322 321 320 312 311 304 311 317 303 287 199 206 214 268 241 210 202 226 239 204 151 177 119 0 136 153 140 190 256 225 203 210 224 265 141 125 141 136 129 86 31 23 14 359 351 342 341 333 327
318 319 320 311 320 322 319 316 311 308 310 317 295 254 215 183 220 162 134 181 206 225 226 265 209 124 225 156 107 183 204 183 207 183 183 222 243 237 337 107 108 144 159 112 242 68 22 15 4 355 354 347 335 329
319 320 319 320 324 320 321 327 321 314 325 327 307 304 98 155 132 147 143 222 197 212 198 217 221 125 176 160 145 220 248 182 248 159 218 212 209 83 122 114 113 117 108 96 89 69 51 31 9 6 0 347 347 345
330 329 324 328 322 324 334 329 324 308 306 304 296 270 138 136 160 206 194 171 222 228 169 196 168 160 164 182 198 173 239 208 255 142 249 223 116 138 137 125 121 114 113 99 79 65 55 35 25 19 6 351 -0 360
323 325 324 327 324 330 338 330 337 305 287 253 212 213 203 172 201 229 177 181 200 173 167 168 156 171 156 206 160 152 225 243 134 215 211 55 132 141 144 135 124 119 113 100 76 65 56 40 37 25 18 360 15 19
332 325 324 320 317 329 331 326 323 195 287 267 205 189 247 176 227 199 277 37 80 154 152 165 150 188 136 176 117 234 190 286 245 223 116 135 158 148 145 138 135 127 120 104 81 65 57 54 44 35 30 14 18 29
326 329 324 329 319 330 334 334 307 326 307 285 292 253 217 2 335 320 343 280 138 162 156 164 155 147 140 184 209 272 215 225 247 55 97 149 150 150 145 143 140 134 127 107 86 66 64 59 49 39 36 32 27 27
319 333 321 323 321 329 324 348 62 232 313 282 266 279 337 295 258 255 280 243 210 196 175 166 181 192 162 195 221 223 278 326 57 333 131 143 150 149 145 144 147 135 130 121 94 73 69 64 56 52 47 43 43 41
319 308 316 326 330 322 339 349 9 345 314 302 301 298 282 273 287 55 343 209 182 183 195 146 195 197 137 199 210 355 282 8 299 138 141 150 153 150 146 144 144 141 138 128 98 78 70 71 71 64 56 50 51 52
309 310 317 319 325 354 354 2 2 352 311 288 325 313 318 295 316 52 84 139 174 209 219 169 248 209 210 209 159 196 193 173 124 142 142 145 148 150 150 146 142 138 137 130 108 91 85 72 68 63 61 55 55 53
306 307 308 304 335 354 338 344 7 324 305 315 310 301 303 304 300 299 292 148 102 188 269 246 234 256 65 51 40 63 84 153 158 144 139 144 150 152 152 149 142 139 141 137 120 105 93 84 77 72 64 57 57 56
301 300 226 222 264 319 304 312 335 305 327 332 303 303 304 293 297 280 196 162 174 192 217 241 267 46 30 57 42 57 131 139 145 146 145 150 155 152 153 153 151 152 144 142 135 117 104 93 84 81 77 70 64 60
283 211 167 161 146 272 295 320 289 300 316 302 301 312 286 270 251 213 169 161 116 262 242 220 234 51 64 19 8 68 144 162 163 167 166 159 163 163 163 165 162 164 162 160 154 153 125 118 107 93 82 74 68 63
309 35 127 8 342 320 272 258 286 303 274 289 299 275 260 259 225 156 147 197 224 204 220 192 4 342 174 175 101 127 154 153 151 148 154 161 164 166 166 162 158 160 163 162 161 159 156 142 127 116 101 84 73 68
103 144 29 9 303 266 266 293 263 238 272 276 267 249 216 223 98 158 234 219 164 179 276 279 267 257 256 168 142 140 156 156 154 159 162 162 168 170 170 169 164 156 154 155 153 156 159 163 140 128 119 105 90 68
131 156 251 270 244 289 307 229 246 244 246 254 254 251 206 189 163 244 255 180 105 1 328 293 239 204 177 182 171 162 165 168 164 161 166 161 163 169 173 172 170 168 163 160 153 153 158 157 165 146 138 125 108 87
164 210 222 227 226 244 233 198 235 230 245 224 254 225 197 200 229 223 223 123 67 42 30 53 154 188 221 144 143 165 177 184 187 189 172 165 171 171 172 175 180 182 179 170 165 160 159 162 159 160 151 138 130 118
241 201 206 223 193 234 277 274 215 274 294 269 240 263 237 247 240 193 78 84 99 64 43 48 36 6 141 115 152 182 191 194 198 184 182 185 185 185 187 188 192 197 191 180 172 166 163 162 163 160 156 157 138 119
246 231 221 236 273 263 269 245 264 274 259 271 330 318 287 247 199 81 123 159 181 225 340 347 336 347 321 333 327 135 174 194 176 190 186 196 200 199 198 197 202 201 186 178 175 169 165 164 164 161 160 148 135 120
260 265 231 196 223 234 268 268 235 206 141 310 293 267 285 334 16 276 219 216 219 248 5 328 275 287 305 287 286 220 194 207 218 180 191 189 205 204 190 194 200 188 168 168 168 168 163 161 162 160 156 151 139 123
234 221 218 243 226 228 224 249 264 158 171 190 217 212 263 256 322 270 246 250 257 272 293 288 275 279 280 288 260 212 218 206 197 196 194 195 194 191 181 171 159 161 166 173 174 168 167 164 160 158 158 154 152 134
235 200 221 242 224 220 217 225 287 328 292 270 258 214 232 265 274 266 281 299 287 281 275 282 280 268 257 245 244 145 208 218 210 202 200 189 187 183 169 168 171 177 181 184 184 182 184 189 185 182 177 162 142 123
220 200 230 236 256 259 264 272 287 289 287 282 276 290 286 282 282 267 258 280 277 292 294 281 261 260 263 285 239 221 242 260 217 217 205 197 199 183 175 172 178 183 186 184 184 187 187 179 177 174 174 170 177 140
205 215 229 242 248 263 279 270 275 269 269 262 264 244 238 242 257 217 249 247 289 298 296 286 244 247 263 252 231 222 255 249 203 205 210 180 178 165 166 182 179 173 174 178 182 178 174 175 173 172 178 185 171 160
218 225 224 265 268 274 261 243 253 288 260 261 257 230 220 238 246 221 247 232 253 279 306 294 262 260 257 241 240 243 226 190 166 164 163 174 184 180 186 177 170 171 177 173 167 168 171 176 178 181 184 180 171 157
Wind_Speed_850mb
41 42 42 37 37 36 35 35 37 36 40 39 34 30 31 29 27 28 30 27 21 9 24 24 23 14 6 7 4 2 9 6 6 8 5 4 7 7 6 6 14 13 13 9 13 11 14 11 11 11 8 5 8 9
39 40 37 38 39 39 37 38 38 39 41 40 37 32 34 30 30 29 30 24 16 17 26 27 22 30 21 8 10 5 6 2 5 2 4 2 7 6 9 7 9 9 9 5 11 3 7 3 10 9 8 8 8 10
40 37 37 42 44 42 38 33 37 36 40 40 39 34 36 32 25 26 29 24 19 14 28 29 14 7 13 28 16 9 3 3 3 3 3 2 5 5 7 9 4 9 9 9 6 11 1 6 8 6 6 10 9 12
40 36 36 41 46 47 37 36 36 36 41 40 36 35 37 30 27 23 27 19 19 3 5 8 7 3 3 10 17 10 1 5 6 4 5 5 6 3 4 4 13 6 7 11 17 13 7 9 10 8 7 7 10 14
40 37 36 39 45 47 41 40 38 35 37 40 36 34 32 27 17 13 21 22 16 9 6 9 4 5 10 11 12 9 9 9 6 6 5 3 2 4 5 7 14 17 15 10 5 7 7 6 6 7 12 16 18 22
42 40 34 37 43 43 41 39 39 37 41 37 36 33 25 22 12 13 7 9 22 21 5 3 5 7 18 11 8 10 10 4 3 4 2 1 1 6 4 5 6 8 8 4 4 3 5 7 5 11 17 18 22 21
42 41 36 35 41 44 44 42 39 41 42 34 34 29 21 19 15 10 6 9 13 18 2 5 8 8 17 14 10 12 9 5 0 4 4 2 5 10 5 4 10 5 12 14 5 3 4 4 17 14 17 21 23 28
42 43 40 35 38 43 47 43 40 41 39 38 31 23 22 17 17 15 18 6 11 10 5 4 3 9 17 10 7 7 8 6 2 0 3 5 9 10 7 11 6 9 9 10 8 8 8 6 9 14 19 26 31 32
42 42 41 33 38 43 47 43 42 40 35 35 35 19 11 16 10 9 6 8 9 5 3 6 6 5 15 5 0 2 3 3 1 4 4 6 7 8 6 1 8 12 5 8 4 5 6 9 12 18 26 28 36 41
40 41 41 32 39 44 47 44 39 38 36 32 19 5 5 8 11 10 6 4 6 5 6 6 1 6 4 10 4 5 4 5 6 8 8 7 8 9 4 12 16 20 6 4 1 6 10 12 17 23 24 34 40 37
37 39 36 34 39 41 42 38 36 33 27 10 3 3 4 17 8 4 4 4 5 7 10 5 7 6 8 4 5 9 2 3 4 6 5 5 5 6 17 19 20 16 12 15 16 13 13 14 17 19 29 39 39 37
33 38 35 36 34 38 43 33 28 22 21 24 20 4 5 3 2 4 4 5 7 2 9 7 11 8 9 6 6 7 2 4 4 9 3 4 8 20 22 22 19 17 20 19 16 15 12 16 18 19 26 38 39 32
35 37 30 34 30 38 36 26 32 22 13 3 3 4 3 3 5 7 11 6 5 11 12 13 12 11 9 9 3 4 6 5 14 4 5 1 26 28 24 22 20 21 20 17 16 14 14 17 20 24 23 34 39 34
36 31 30 34 29 35 29 21 29 3 4 2 2 4 5 6 6 3 2 4 6 7 15 24 14 6 5 8 4 6 5 2 5 6 3 8 31 31 24 20 24 21 17 16 16 15 16 19 21 24 23 28 36 43
33 29 28 19 32 33 29 18 15 9 4 3 2 3 5 4 5 10 9 5 6 7 22 12 5 4 5 5 4 3 6 6 5 2 5 25 33 30 25 22 24 20 17 14 13 15 18 19 20 22 25 25 29 37
31 30 13 24 22 20 22 19 3 6 5 3 4 6 6 3 3 6 6 6 16 16 13 6 4 4 6 3 5 5 5 4 4 2 30 32 32 28 23 22 23 19 16 14 14 16 18 19 19 21 24 26 31 33
29 14 26 24 20 17 12 11 7 2 4 4 2 6 7 13 10 7 2 3 9 22 6 4 4 4 5 5 5 3 3 4 5 13 22 27 31 29 24 24 23 19 18 18 15 17 21 22 19 21 25 27 28 31
20 24 19 18 12 16 6 7 6 4 3 4 3 7 7 10 11 6 6 10 9 9 6 2 1 6 5 4 4 6 7 12 2 19 25 27 28 27 26 28 24 22 22 20 16 18 18 20 20 21 21 21 24 28
27 23 13 6 8 9 6 6 5 5 3 7 6 8 8 9 7 6 2 5 5 11 7 4 6 4 4 4 7 9 7 12 20 24 26 26 28 27 29 29 26 22 21 20 16 15 17 19 21 19 19 20 23 22
17 10 3 5 1 4 4 3 5 4 5 9 10 8 10 10 9 6 3 8 6 2 8 4 2 7 7 9 8 9 13 22 29 28 26 26 29 30 31 28 23 21 19 20 16 14 16 16 16 18 20 22 24 25
5 1 3 7 2 3 4 4 3 4 9 8 9 12 8 9 10 7 6 10 5 4 7 12 2 8 3 3 3 3 12 26 27 21 23 30 32 31 28 21 21 20 19 17 16 14 12 13 13 14 15 18 20 25
2 2 7 2 2 3 5 5 6 9 6 10 10 6 9 6 5 4 10 9 7 9 7 2 2 4 4 2 2 4 16 26 17 17 22 29 34 34 31 26 22 20 19 17 15 15 14 13 13 13 12 15 17 19
2 2 5 3 3 3 3 4 5 3 5 4 7 6 5 5 2 5 6 7 4 2 5 8 9 7 5 4 7 13 27 25 22 20 21 23 27 30 30 27 23 22 20 17 14 16 17 17 14 12 10 11 10 11
5 2 2 2 4 4 5 4 4 6 6 4 5 5 4 3 6 7 5 5 4 4 4 6 6 8 9 12 13 22 28 25 22 19 22 24 27 29 31 29 24 19 17 19 17 17 17 17 16 12 9 7 7 7
2 3 4 6 6 6 7 5 5 7 4 5 4 5 4 6 5 6 4 7 7 11 8 4 6 5 2 5 8 18 26 31 25 32 27 25 25 28 27 26 22 19 20 23 21 18 17 16 15 13 10 7 6 6
5 7 8 6 6 7 3 5 4 2 4 4 4 5 5 5 5 3 4 5 7 7 9 9 6 1 5 4 3 10 20 31 17 28 30 30 27 30 31 29 26 23 24 24 24 22 20 17 16 16 12 9 9 9
5 8 9 8 6 7 8 10 9 5 4 3 5 6 4 5 2 6 5 4 6 1 2 5 7 5 6 5 3 1 9 24 16 23 31 25 22 21 25 26 25 21 28 31 26 23 20 20 19 18 14 11 9 8
9 5 9 4 10 12 6 4 6 7 2 2 5 4 4 6 5 1 5 8 6 4 6 4 8 9 8 9 9 7 13 22 25 24 23 13 23 23 23 19 18 22 29 30 27 24 20 18 19 19 17 13 10 8
9 9 10 11 11 10 9 6 5 2 8 7 2 2 3 3 12 7 8 8 8 8 9 9 8 8 8 7 4 7 15 27 26 32 35 29 14 20 28 26 33 33 32 32 29 24 23 21 20 21 17 13 8 6
8 15 9 8 7 9 10 8 5 5 5 6 4 3 5 9 8 8 6 9 11 11 11 14 13 10 10 9 4 3 3 15 28 34 27 27 18 29 41 39 36 34 33 31 29 28 25 20 17 15 11 8 6 6
5 12 10 12 9 10 9 8 9 8 9 9 7 9 6 7 9 13 13 11 7 8 9 9 8 7 6 4 6 9 6 12 20 26 36 31 12 31 43 41 38 35 33 30 26 25 26 25 21 17 13 9 5 7
14 16 11 10 13 10 10 10 10 13 13 13 14 8 5 5 6 6 8 3 2 3 7 7 8 8 9 10 11 14 11 12 13 17 28 49 35 28 31 31 35 35 33 29 26 26 27 23 21 18 13 8 7 7
15 11 8 6 7 8 8 7 4 7 8 10 9 8 8 6 3 8 7 7 5 7 9 10 11 9 12 13 13 13 15 24 24 26 38 38 31 26 30 35 36 32 28 29 30 28 26 23 20 17 12 10 9 9
Wind_Direction_850mb
330 332 335 337 334 326 323 317 322 320 329 332 327 318 314 315 313 298 276 273 275 248 272 274 284 272 260 190 245 132 210 187 203 222 243 176 249 185 214 151 168 171 183 192 212 218 248 121 179 242 28 343 338 325
326 331 335 330 328 326 317 312 314 311 320 325 327 311 316 319 304 292 276 279 270 252 271 283 264 281 267 278 307 182 30 75 36 255 244 253 201 196 227 199 188 214 219 198 204 233 106 191 307 325 319 325 332 323
322 323 329 328 329 325 320 315 312 316 318 322 322 307 317 315 301 281 263 277 285 267 284 248 286 256 262 234 241 290 153 92 150 334 306 7 248 291 212 229 252 221 208 236 227 186 331 319 308 320 333 327 342 324
322 319 323 328 327 332 320 312 313 311 316 323 319 311 316 317 309 273 251 268 292 269 260 259 3 252 343 164 189 204 28 167 136 218 251 255 243 241 227 4 259 55 205 245 250 259 307 68 54 15 350 337 326 312
321 317 317 325 326 331 326 320 315 310 312 319 315 316 319 315 305 260 255 260 266 233 287 342 286 6 130 138 144 158 156 167 193 198 219 227 12 263 228 284 247 220 242 246 302 63 323 344 332 330 320 317 313 310
320 317 315 323 324 327 324 318 314 310 312 317 310 315 314 309 263 271 263 256 234 234 242 222 192 160 170 150 149 135 132 123 117 264 156 180 82 258 251 222 269 225 216 289 48 290 298 4 340 331 322 313 308 302
320 319 311 315 323 322 321 316 310 308 316 311 310 303 304 293 254 261 308 289 266 199 265 276 153 118 140 136 160 183 167 144 122 122 213 195 172 214 262 235 164 112 121 128 148 276 247 354 341 328 322 318 309 302
321 321 313 311 318 321 324 317 316 311 313 320 326 302 291 255 242 260 269 347 207 203 191 250 116 157 175 165 187 213 192 162 91 74 182 214 155 217 253 228 164 129 120 112 88 42 12 354 339 341 336 330 323 316
318 319 319 312 317 322 321 320 312 311 304 311 317 303 287 199 206 214 268 241 210 202 226 239 204 151 177 119 0 136 153 140 190 256 225 203 210 224 265 141 125 141 136 129 86 31 23 14 359 351 342 341 333 327
318 319 320 311 320 322 319 316 311 308 310 317 295 254 215 183 220 162 134 181 206 225 226 265 209 124 225 156 107 183 204 183 207 183 183 222 243 237 337 107 108 144 159 112 242 68 22 15 4 355 354 347 335 329
319 320 319 320 324 320 321 327 321 314 325 327 307 304 98 155 132 147 143 222 197 212 198 217 221 125 176 160 145 220 248 182 248 159 218 212 209 83 122 114 113 117 108 96 89 69 51 31 9 6 0 347 347 345
330 329 324 328 322 324 334 329 324 308 306 304 296 270 138 136 160 206 194 171 222 228 169 196 168 160 164 182 198 173 239 208 255 142 249 223 116 138 137 125 121 114 113 99 79 65 55 35 25 19 6 351 -0 360
323 325 324 327 324 330 338 330 337 305 287 253 212 213 203 172 201 229 177 181 200 173 167 168 156 171 156 206 160 152 225 243 134 215 211 55 132 141 144 135 124 119 113 100 76 65 56 40 37 25 18 360 15 19
332 325 324 320 317 329 331 326 323 195 287 267 205 189 247 176 227 199 277 37 80 154 152 165 150 188 136 176 117 234 190 286 245 223 116 135 158 148 145 138 135 127 120 104 81 65 57 54 44 35 30 14 18 29
326 329 324 329 319 330 334 334 307 326 307 285 292 253 217 2 335 320 343 280 138 162 156 164 155 147 140 184 209 272 215 225 247 55 97 149 150 150 145 143 140 134 127 107 86 66 64 59 49 39 36 32 27 27
319 333 321 323 321 329 324 348 62 232 313 282 266 279 337 295 258 255 280 243 210 196 175 166 181 192 162 195 221 223 278 326 57 333 131 143 150 149 145 144 147 135 130 121 94 73 69 64 56 52 47 43 43 41
319 308 316 326 330 322 339 349 9 345 314 302 301 298 282 273 287 55 343 209 182 183 195 146 195 197 137 199 210 355 282 8 299 138 141 150 153 150 146 144 144 141 138 128 98 78 70 71 71 64 56 50 51 52
309 310 317 319 325 354 354 2 2 352 311 288 325 313 318 295 316 52 84 139 174 209 219 169 248 209 210 209 159 196 193 173 124 142 142 145 148 150 150 146 142 138 137 130 108 91 85 72 68 63 61 55 55 53
306 307 308 304 335 354 338 344 7 324 305 315 310 301 303 304 300 299 292 148 102 188 269 246 234 256 65 51 40 63 84 153 158 144 139 144 150 152 152 149 142 139 141 137 120 105 93 84 77 72 64 57 57 56
301 300 226 222 264 319 304 312 335 305 327 332 303 303 304 293 297 280 196 162 174 192 217 241 267 46 30 57 42 57 131 139 145 146 145 150 155 152 153 153 151 152 144 142 135 117 104 93 84 81 77 70 64 60
283 211 167 161 146 272 295 320 289 300 316 302 301 312 286 270 251 213 169 161 116 262 242 220 234 51 64 19 8 68 144 162 163 167 166 159 163 163 163 165 162 164 162 160 154 153 125 118 107 93 82 74 68 63
309 35 127 8 342 320 272 258 286 303 274 289 299 275 260 259 225 156 147 197 224 204 220 192 4 342 174 175 101 127 154 153 151 148 154 161 164 166 166 162 158 160 163 162 161 159 156 142 127 116 101 84 73 68
103 144 29 9 303 266 266 293 263 238 272 276 267 249 216 223 98 158 234 219 164 179 276 279 267 257 256 168 142 140 156 156 154 159 162 162 168 170 170 169 164 156 154 155 153 156 159 163 140 128 119 105 90 68
131 156 251 270 244 289 307 229 246 244 246 254 254 251 206 189 163 244 255 180 105 1 328 293 239 204 177 182 171 162 165 168 164 161 166 161 163 169 173 172 170 168 163 160 153 153 158 157 165 146 138 125 108 87
164 210 222 227 226 244 233 198 235 230 245 224 254 225 197 200 229 223 223 123 67 42 30 53 154 188 221 144 143 165 177 184 187 189 172 165 171 171 172 175 180 182 179 170 165 160 159 162 159 160 151 138 130 118
241 201 206 223 193 234 277 274 215 274 294 269 240 263 237 247 240 193 78 84 99 64 43 48 36 6 141 115 152 182 191 194 198 184 182 185 185 185 187 188 192 197 191 180 172 166 163 162 163 160 156 157 138 119
246 231 221 236 273 263 269 245 264 274 259 271 330 318 287 247 199 81 123 159 181 225 340 347 336 347 321 333 327 135 174 194 176 190 186 196 200 199 198 197 202 201 186 178 175 169 165 164 164 161 160 148 135 120
260 265 231 196 223 234 268 268 235 206 141 310 293 267 285 334 16 276 219 216 219 248 5 328 275 287 305 287 286 220 194 207 218 180 191 189 205 204 190 194 200 188 168 168 168 168 163 161 162 160 156 151 139 123
234 221 218 243 226 228 224 249 264 158 171 190 217 212 263 256 322 270 246 250 257 272 293 288 275 279 280 288 260 212 218 206 197 196 194 195 194 191 181 171 159 161 166 173 174 168 167 164 160 158 158 154 152 134
235 200 221 242 224 220 217 225 287 328 292 270 258 214 232 265 274 266 281 299 287 281 275 282 280 268 257 245 244 145 208 218 210 202 200 189 187 183 169 168 171 177 181 184 184 182 184 189 185 182 177 162 142 123
220 200 230 236 256 259 264 272 287 289 287 282 276 290 286 282 282 267 258 280 277 292 294 281 261 260 263 285 239 221 242 260 217 217 205 197 199 183 175 172 178 183 186 184 184 187 187 179 177 174 174 170 177 140
205 215 229 242 248 263 279 270 275 269 269 262 264 244 238 242 257 217 249 247 289 298 296 286 244 247 263 252 231 222 255 249 203 205 210 180 178 165 166 182 179 173 174 178 182 178 174 175 173 172 178 185 171 160
218 225 224 265 268 274 261 243 253 288 260 261 257 230 220 238 246 221 247 232 253 279 306 294 262 260 257 241 240 243 226 190 166 164 163 174 184 180 186 177 170 171 177 173 167 168 171 176 178 181 184 180 171 157